Date,TemperatureHighF,TemperatureAvgF,TemperatureLowF,DewpointHighF,DewpointAvgF,DewpointLowF,HumidityHigh,HumidityAvg,HumidityLow,PressureMaxIn,PressureMinIn,WindSpeedMaxMPH,WindSpeedAvgMPH,GustSpeedMaxMPH,PrecipitationSumIn
2013-1-1,47,40,35,36,23,14,68,49,38,29.38,29.12,9,6,18,0.00
2013-1-2,43,36,32,18,15,13,54,43,30,29.44,29.35,7,3,12,0.00
2013-1-3,50,39,29,19,15,8,56,38,19,29.56,29.41,9,4,17,0.00
2013-1-4,53,45,39,25,18,13,51,35,26,29.62,29.44,4,2,8,0.00
2013-1-5,58,46,38,31,24,16,65,43,20,29.44,29.26,4,2,11,0.00
2013-1-6,58,43,32,24,11,-4,57,31,10,29.50,29.38,8,4,16,0.00
2013-1-7,58,44,30,19,13,7,43,30,14,29.41,29.17,7,3,13,0.00
2013-1-8,49,48,46,44,33,17,84,60,30,29.20,29.09,8,4,13,1.40
2013-1-9,58,54,49,54,50,44,91,87,82,29.23,29.06,12,5,21,1.04
2013-1-10,58,55,50,55,45,35,92,70,43,29.09,29.00,6,3,12,0.04
2013-1-11,72,60,48,54,38,29,71,47,23,29.03,28.85,8,4,18,0.00
2013-1-12,66,54,36,58,37,15,78,55,31,29.09,28.82,12,6,21,0.00
2013-1-13,44,36,29,15,8,-2,42,32,15,29.38,29.06,11,7,20,0.00
2013-1-14,46,35,27,12,6,-4,42,32,13,29.44,29.29,12,6,20,0.00
2013-1-15,39,34,29,21,14,8,68,43,33,29.35,29.26,10,6,15,0.00
2013-1-16,52,38,26,11,5,-8,44,28,10,29.41,29.26,6,3,13,0.00
2013-1-17,61,47,36,20,11,1,44,25,10,29.59,29.32,9,5,17,0.00
2013-1-18,64,48,34,21,13,0,48,27,10,29.59,29.35,7,3,17,0.00
2013-1-19,69,54,41,30,23,10,50,33,10,29.35,29.20,7,3,15,0.00
2013-1-20,69,53,40,37,24,7,65,38,10,29.29,29.17,5,1,11,0.00
2013-1-21,57,47,38,28,14,3,50,29,12,29.41,29.20,12,4,19,0.00
2013-1-22,68,52,37,34,20,10,49,29,15,29.41,29.26,5,3,11,0.00
2013-1-23,76,62,49,41,36,31,60,40,20,29.35,29.20,7,4,15,0.00
2013-1-24,84,62,50,47,34,15,69,39,10,29.26,29.12,8,3,15,0.00
2013-1-25,51,47,44,39,29,24,79,51,37,29.29,29.14,8,4,15,0.00
2013-1-26,61,50,43,45,32,24,75,51,33,29.32,29.17,6,3,11,0.00
2013-1-27,73,60,52,60,50,43,91,72,34,29.17,29.03,11,6,21,0.00
2013-1-28,71,71,70,48,48,48,45,44,43,28.94,28.91,10,9,18,0.00
2013-1-29,79,66,52,52,41,7,57,41,15,28.94,28.55,13,8,26,0.32
2013-1-30,54,48,42,22,10,-4,39,24,10,29.20,28.79,15,11,29,0.00
2013-2-7,64,57,52,35,32,29,45,39,30,29.23,29.06,13,9,26,0.00
2013-2-8,65,53,40,28,13,-2,47,24,10,29.35,29.20,10,4,15,0.00
2013-2-9,60,52,49,57,36,9,90,57,19,29.20,28.82,11,7,21,0.00
2013-2-10,70,59,49,64,21,-1,94,32,10,29.12,28.76,11,5,28,0.98
2013-2-11,58,51,48,29,20,5,48,30,12,29.26,29.12,8,5,16,0.00
2013-2-12,51,47,41,41,36,26,77,64,49,29.14,28.97,12,5,21,0.12
2013-2-13,63,47,39,27,21,5,58,40,10,29.26,29.12,11,6,18,0.00
2013-2-17,60,59,58,29,26,24,32,28,25,29.00,28.97,11,10,24,0.00
2013-2-18,78,62,48,41,21,-1,50,25,10,29.23,28.85,16,9,28,0.00
2013-2-19,63,52,39,16,6,-2,34,17,10,29.41,29.20,8,5,15,0.00
2013-2-20,52,46,42,31,24,7,57,43,16,29.26,28.88,11,7,18,0.20
2013-2-21,69,52,42,40,24,2,76,40,10,29.03,28.70,11,7,28,0.24
2013-2-22,50,40,30,23,11,5,49,32,16,29.26,29.03,8,5,15,0.00
2013-2-23,59,44,31,16,11,3,48,30,12,29.20,29.03,6,3,13,0.00
2013-2-24,71,55,38,28,17,7,43,25,10,29.03,28.70,10,6,22,0.00
2013-2-25,62,52,40,42,25,4,57,38,12,28.79,28.58,16,9,30,0.08
2013-2-26,62,48,39,19,13,-1,42,27,10,29.00,28.82,14,8,26,0.00
2013-2-27,58,46,36,19,9,-4,49,26,10,29.35,29.00,12,6,21,0.00
2013-2-28,61,46,33,17,7,-5,50,24,10,29.41,29.26,10,6,19,0.00
2013-3-1,61,46,35,17,8,-3,40,24,10,29.41,29.26,10,4,17,0.00
2013-3-2,60,44,30,15,7,-4,52,25,10,29.53,29.32,7,4,15,0.00
2013-3-3,74,58,38,14,7,-2,29,14,10,29.32,28.85,11,6,22,0.00
2013-3-4,89,70,56,26,19,4,28,16,10,28.91,28.67,10,6,23,0.00
2013-3-5,59,51,42,25,4,-10,33,16,10,29.47,28.94,12,8,26,0.00
2013-3-6,66,49,34,9,1,-10,31,15,10,29.56,29.29,5,2,10,0.00
2013-3-7,73,59,43,13,3,-10,13,10,10,29.32,29.17,10,6,20,0.00
2013-3-8,63,60,55,48,38,10,61,46,14,29.26,29.06,9,7,17,0.00
2013-3-9,74,64,60,60,50,43,84,62,37,29.06,28.73,15,8,28,1.26
2013-3-10,60,52,42,51,23,12,73,34,20,29.17,28.85,16,8,26,0.00
2013-3-11,65,48,34,18,7,-4,41,23,10,29.23,29.09,9,4,17,0.00
2013-3-12,70,55,42,12,4,-3,28,13,10,29.41,29.12,11,4,19,0.00
2013-3-13,74,58,44,24,14,2,40,20,10,29.53,29.38,6,3,13,0.00
2013-3-14,82,65,49,27,19,10,38,19,10,29.44,29.23,7,5,17,0.00
2013-3-15,86,68,55,39,30,20,52,28,10,29.26,29.03,8,5,21,0.00
2013-3-21,71,68,65,44,40,36,47,36,29,28.67,28.64,11,9,20,0.00
2013-3-22,65,53,46,51,38,30,68,56,43,28.94,28.64,17,7,27,0.00
2013-3-23,55,50,47,43,38,34,76,62,48,28.94,28.76,9,3,20,0.16
2013-3-24,58,46,38,39,11,-7,67,28,10,29.26,28.94,16,9,28,0.00
2013-3-25,60,45,32,13,1,-10,36,18,10,29.50,29.26,9,5,22,0.00
2013-3-26,65,48,32,7,-1,-10,25,13,10,29.59,29.35,5,2,11,0.00
2013-3-27,73,58,41,27,8,-3,28,14,10,29.38,29.14,12,7,25,0.00
2013-3-28,72,63,52,42,37,28,58,38,29,29.29,29.14,10,6,17,0.00
2013-3-29,80,73,68,41,38,34,37,28,20,29.14,29.12,10,8,18,0.00
2013-3-30,82,69,57,52,45,39,74,45,22,29.17,28.97,7,4,19,1.10
2013-3-31,77,68,61,55,41,32,70,40,21,29.09,28.88,17,5,28,0.00
2013-4-1,83,69,54,37,28,15,49,25,10,29.17,29.03,6,2,12,0.00
2013-4-2,69,63,54,52,42,31,64,48,26,29.12,29.00,9,5,15,0.04
2013-4-3,55,49,44,46,39,30,81,69,38,29.26,29.03,13,5,22,0.96
2013-4-4,53,47,43,35,30,27,71,54,37,29.32,29.23,8,5,15,0.08
2013-4-5,74,57,41,34,28,14,65,37,11,29.35,29.12,7,4,13,0.00
2013-4-6,83,68,57,44,35,28,46,31,16,29.12,28.91,9,7,22,0.00
2013-4-7,75,68,62,50,46,44,60,47,33,29.00,28.82,11,8,21,0.00
2013-4-8,77,71,66,50,47,44,57,42,31,28.85,28.76,10,8,23,0.00
2013-4-9,81,74,70,53,49,44,55,42,30,28.82,28.73,12,9,24,0.00
2013-4-10,73,46,39,52,30,25,66,53,33,29.09,28.82,12,9,24,0.56
2013-4-17,79,77,76,55,52,47,48,42,32,28.73,28.70,14,12,27,0.00
2013-4-18,76,57,47,62,31,17,67,40,22,29.26,28.64,18,9,29,1.10
2013-4-19,51,43,39,23,21,18,50,43,27,29.38,29.26,8,4,13,0.00
2013-5-2,46,46,44,28,24,21,48,42,39,29.44,29.41,10,7,22,0.00
2013-5-3,72,56,38,21,13,1,47,23,10,29.44,29.12,10,7,21,0.00
2013-5-4,79,63,44,25,16,4,39,19,10,29.12,29.00,11,4,22,0.00
2013-5-5,76,61,47,32,21,12,45,25,10,29.26,29.12,6,4,15,0.00
2013-5-6,84,69,52,39,28,16,50,26,10,29.23,29.09,4,1,11,0.00
2013-5-7,92,76,59,46,30,15,50,22,10,29.17,29.00,6,3,13,0.00
2013-5-8,88,77,65,41,32,18,38,21,10,29.06,28.94,9,5,20,0.00
2013-5-9,76,71,68,55,46,32,61,42,21,29.09,28.97,8,6,17,0.00
2013-5-20,88,85,83,50,49,47,31,29,25,28.82,28.70,11,8,22,0.00
2013-5-31,96,88,78,60,52,46,53,31,19,28.91,28.76,10,8,22,0.00
2013-6-1,94,81,74,58,53,42,50,39,22,29.06,28.79,10,6,24,0.00
2013-6-2,90,77,64,48,34,15,55,26,10,29.17,29.03,7,4,15,0.00
2013-6-3,98,80,63,45,35,22,51,24,10,29.09,28.91,6,4,13,0.00
2013-6-4,96,84,72,51,43,29,45,27,10,29.06,28.85,10,7,21,0.00
2013-6-5,97,85,75,54,44,29,48,26,10,29.03,28.85,11,5,23,0.00
2013-6-6,81,79,78,54,51,48,43,38,31,28.94,28.91,5,2,9,0.00
2013-6-13,87,86,85,49,48,46,29,27,24,29.03,29.03,1,1,4,0.00
2013-6-14,103,90,76,50,41,30,39,21,10,29.09,28.97,5,1,10,0.00
2013-6-15,95,85,78,58,51,43,46,32,20,29.09,28.97,7,2,13,0.00
2013-6-16,104,89,75,63,47,31,60,29,10,29.09,28.94,6,2,13,0.00
2013-6-17,99,84,69,67,55,46,81,41,17,29.12,28.94,13,3,26,0.91
2013-6-18,90,79,71,65,55,45,76,47,21,29.12,28.97,13,3,25,0.43
2013-6-19,98,84,72,66,55,45,77,42,18,29.09,28.91,6,3,12,0.00
2013-6-20,99,86,76,63,50,32,64,34,10,29.12,29.00,7,5,17,0.00
2013-7-13,89,88,86,25,24,23,11,10,10,29.03,29.00,7,7,13,0.00
2013-7-14,86,74,70,63,52,23,73,51,11,29.12,28.97,7,2,13,0.72
2013-7-15,73,71,69,70,62,57,90,74,57,29.14,29.06,5,2,8,0.20
2013-7-16,89,78,72,71,63,47,91,66,25,29.26,29.14,11,4,21,0.78
2013-7-17,92,78,72,68,61,49,83,59,24,29.32,29.23,8,2,15,0.12
2013-7-18,99,84,73,68,56,40,79,45,13,29.26,29.09,5,1,10,0.00
2013-7-19,104,88,75,64,49,33,64,31,10,29.14,28.97,8,2,16,0.00
2013-7-20,102,87,76,60,50,32,58,33,10,29.06,28.94,8,2,19,0.00
2013-7-21,103,89,75,64,51,33,68,33,10,29.00,28.91,6,3,14,0.00
2013-7-22,103,90,78,67,52,32,70,33,10,29.03,28.94,6,4,14,0.00
2013-7-23,104,92,79,61,50,34,54,27,10,29.03,28.88,5,4,15,0.00
2013-7-24,102,88,78,55,47,30,43,27,10,29.14,28.94,11,3,18,0.00
2013-7-25,98,87,77,57,51,42,49,31,16,29.12,29.03,7,3,13,0.00
2013-7-26,98,86,78,67,54,45,64,35,17,29.09,28.94,8,4,17,0.04
2013-7-27,93,82,73,60,45,25,63,33,10,29.09,28.97,8,4,15,0.00
2013-7-28,98,85,70,56,46,31,54,28,10,29.06,28.91,6,3,13,0.00
2013-7-29,100,88,79,63,54,43,58,34,15,29.06,28.97,8,6,17,0.00
2013-8-13,83,83,82,53,53,52,37,36,34,0.00,40.00,6,5,10,0.00
2013-8-14,94,80,76,68,61,48,73,54,21,0.00,40.00,6,2,12,0.36
2013-8-15,93,81,74,63,50,40,65,37,17,0.00,40.00,8,4,13,0.00
2013-8-16,79,74,69,60,51,45,73,47,31,0.00,40.00,9,3,21,0.08
2013-9-19,80,74,73,66,62,50,75,68,36,29.06,29.03,6,3,13,0.55
2013-9-20,74,73,68,70,66,56,90,79,62,29.06,28.97,9,4,15,1.35
2013-9-21,71,65,60,55,46,36,65,53,28,29.12,29.06,8,5,15,0.00
2013-9-27,85,83,81,55,54,52,41,37,32,28.97,28.94,9,8,19,0.00
2013-9-28,86,76,67,65,57,48,69,52,39,29.17,28.97,9,6,17,0.32
2013-9-29,83,72,62,48,33,15,50,28,10,29.17,29.03,6,3,13,0.00
2013-9-30,90,73,59,43,34,19,49,28,10,29.03,28.91,6,1,11,0.00
2013-10-4,90,84,80,53,48,42,40,29,19,28.97,28.91,9,7,18,0.00
2013-10-5,80,65,53,60,42,25,69,45,24,29.20,28.94,10,5,23,0.32
2013-10-6,70,56,50,44,36,9,73,52,10,29.23,29.14,9,5,16,0.00
2013-10-12,81,76,72,62,58,54,66,55,40,29.17,29.06,8,4,13,0.00
2013-10-13,76,72,68,66,58,54,84,63,46,29.32,29.14,6,3,10,0.00
2013-10-14,77,72,70,72,66,59,97,81,57,29.23,29.00,7,5,15,0.64
2013-10-15,75,66,54,68,58,46,82,74,58,29.20,29.00,8,4,16,0.48
2013-10-16,56,55,54,50,48,47,81,78,74,29.17,29.14,8,5,15,0.04
2013-10-26,74,65,61,55,52,45,79,65,36,29.20,29.09,8,4,28,1.22
2013-10-27,71,63,60,58,51,42,86,67,36,29.23,29.12,4,1,8,0.00
2013-10-28,76,67,58,65,56,47,97,69,45,29.20,29.09,8,4,14,0.00
2013-10-29,78,73,69,62,60,55,75,64,47,29.17,29.09,8,7,16,0.00
2013-10-30,72,70,68,69,65,60,96,85,67,29.12,28.91,9,6,20,0.32
2013-10-31,73,68,56,70,47,19,98,57,14,28.97,28.79,14,4,25,0.04
2013-11-1,69,55,49,44,39,37,71,57,32,28.97,28.94,8,2,15,0.00
2013-11-21,73,53,42,64,44,33,77,70,49,29.32,29.09,11,8,24,1.02
2013-11-22,42,36,34,33,28,21,81,71,55,29.56,29.35,10,7,24,0.32
2013-11-23,42,37,34,32,25,15,84,64,40,29.65,29.53,10,7,17,0.00
2013-11-24,36,34,33,18,15,8,51,45,35,29.68,29.62,11,7,20,0.00
2013-12-20,37,32,33,34,22,-100,98,87,92,29.95,29.90,4,-89,0,0.05
2013-12-21,50,42,41,49,39,-100,99,95,98,29.99,29.78,3,-35,0,0.00
2013-12-22,42,35,28,41,30,25,99,83,62,30.35,30.00,5,2,0,0.22
2013-12-23,45,32,22,31,26,21,99,80,53,30.36,30.27,5,2,0,0.00
2013-12-24,53,38,23,36,29,22,99,74,48,30.29,29.92,12,4,0,0.00
2013-12-25,56,42,32,42,34,30,93,74,47,30.09,29.92,7,3,0,0.00
2013-12-26,53,39,28,35,30,26,99,73,41,30.10,29.98,6,2,0,0.00
2013-12-27,57,42,30,38,33,27,91,71,46,30.09,29.96,5,1,0,0.00
2013-12-28,59,54,47,42,40,37,69,59,50,29.63,29.60,9,4,0,0.00
2013-12-29,46,31,29,43,28,24,99,89,71,29.77,29.27,12,6,12,0.00
2013-12-30,44,33,25,24,20,16,81,60,40,29.57,29.41,10,4,10,0.00
2013-12-31,55,39,23,30,25,19,90,59,36,29.58,29.34,12,4,12,0.00
2014-1-1,72,50,32,47,35,23,82,60,39,29.39,29.02,21,7,21,0.00
2014-1-2,42,32,23,23,19,15,77,60,40,29.65,29.39,18,7,18,0.00